TimeEET,TemperatureF,Dew PointF,Humidity,Sea Level PressureIn,VisibilityMPH,Wind Direction,Wind SpeedMPH,Gust SpeedMPH,PrecipitationIn,Events,Conditions,WindDirDegrees,DateUTC
5:50 AM,57.2,48.2,72,30.09,6.2,ENE,9.2,-,N/A,,Overcast,60,2012-11-21 03:50:00
6:20 AM,57.2,48.2,72,30.09,6.2,ENE,9.2,-,N/A,,Overcast,60,2012-11-21 04:20:00
6:50 AM,57.2,48.2,72,30.09,6.2,ENE,9.2,-,N/A,,Overcast,60,2012-11-21 04:50:00
7:20 AM,57.2,48.2,72,30.12,6.2,ENE,11.5,-,N/A,,Overcast,60,2012-11-21 05:20:00
7:50 AM,55.4,46.4,72,30.12,6.2,ENE,9.2,-,N/A,,Mostly Cloudy,60,2012-11-21 05:50:00
8:20 AM,57.2,48.2,72,30.12,6.2,ENE,9.2,-,N/A,,Mostly Cloudy,60,2012-11-21 06:20:00
8:50 AM,57.2,44.6,63,30.15,6.2,NE,9.2,-,N/A,,Mostly Cloudy,50,2012-11-21 06:50:00
9:50 AM,57.2,44.6,63,30.15,6.2,NE,11.5,-,N/A,,Mostly Cloudy,50,2012-11-21 07:50:00
10:20 AM,57.2,44.6,63,30.15,6.2,NE,9.2,-,N/A,,Mostly Cloudy,50,2012-11-21 08:20:00
10:50 AM,59.0,42.8,55,30.12,6.2,NE,12.7,-,N/A,,Mostly Cloudy,50,2012-11-21 08:50:00
11:20 AM,59.0,42.8,55,30.12,6.2,NE,12.7,-,N/A,,Mostly Cloudy,50,2012-11-21 09:20:00
11:50 AM,59.0,42.8,55,30.12,6.2,NE,12.7,-,N/A,,Mostly Cloudy,50,2012-11-21 09:50:00
12:20 PM,60.8,42.8,52,30.12,6.2,NE,12.7,-,N/A,,Mostly Cloudy,50,2012-11-21 10:20:00
12:50 PM,62.6,48.2,59,30.12,6.2,NE,12.7,-,N/A,,Mostly Cloudy,40,2012-11-21 10:50:00
1:20 PM,62.6,48.2,59,30.12,6.2,NE,11.5,-,N/A,,Mostly Cloudy,50,2012-11-21 11:20:00
1:50 PM,60.8,48.2,63,30.09,6.2,East,11.5,-,N/A,,Mostly Cloudy,80,2012-11-21 11:50:00
2:20 PM,60.8,48.2,63,30.09,6.2,ENE,9.2,-,N/A,,Mostly Cloudy,70,2012-11-21 12:20:00
2:50 PM,60.8,48.2,63,30.09,6.2,ENE,11.5,-,N/A,,Mostly Cloudy,70,2012-11-21 12:50:00
3:20 PM,60.8,48.2,63,30.09,6.2,ENE,11.5,-,N/A,,Mostly Cloudy,70,2012-11-21 13:20:00
3:50 PM,60.8,48.2,63,30.09,6.2,East,11.5,-,N/A,,Mostly Cloudy,80,2012-11-21 13:50:00
4:20 PM,60.8,48.2,63,30.09,6.2,East,9.2,-,N/A,,Mostly Cloudy,80,2012-11-21 14:20:00
4:50 PM,59.0,42.8,55,30.09,6.2,ENE,11.5,-,N/A,,Mostly Cloudy,70,2012-11-21 14:50:00
5:20 PM,57.2,42.8,59,30.09,6.2,ENE,9.2,-,N/A,,Mostly Cloudy,60,2012-11-21 15:20:00
5:50 PM,57.2,46.4,67,30.12,6.2,ENE,8.1,-,N/A,,Mostly Cloudy,60,2012-11-21 15:50:00
6:20 PM,57.2,46.4,67,30.12,6.2,ENE,8.1,-,N/A,,Mostly Cloudy,60,2012-11-21 16:20:00
6:50 PM,57.2,44.6,63,30.12,6.2,ENE,5.8,-,N/A,,Scattered Clouds,70,2012-11-21 16:50:00
7:20 PM,53.6,44.6,72,30.12,6.2,ENE,5.8,-,N/A,,Scattered Clouds,70,2012-11-21 17:20:00
7:50 PM,51.8,41.0,67,30.15,6.2,ENE,9.2,-,N/A,,Scattered Clouds,70,2012-11-21 17:50:00